Regional Weather Roundup
Issued by NWS

Home | Current Version | Previous Version | Graphics & Text | Print | Product List | Glossary Off
Versions: 1 2 3 4 5 6 7 8 9 10 11 12 13 14 15 16 17 18 19 20 21 22 23 24 25 26 27 28 29 30 31 32 33 34 35 36 37 38 39 40 41 42 43 44 45 46 47 48 49 50

000
ASUS43 KTOP 272108
RWRKS

WEATHER ROUNDUP FOR KANSAS
NATIONAL WEATHER SERVICE GOODLAND KS
400 PM CDT MON MAR 27 2017

NOTE:  "FAIR" INDICATES FEW OR NO CLOUDS BELOW 12,000 FEET WITH NO
SIGNIFICANT WEATHER AND/OR OBSTRUCTIONS TO VISIBILITY.

KSZ001>006-013>018-027>032-041>047-272200-
NORTHWEST KANSAS

CITY           SKY/WX    TMP DP  RH WIND       PRES   REMARKS
GOODLAND       SUNNY     65  37  35 S13       29.86F
HILL CITY      SUNNY     62  45  53 SE9       29.91F
RUSSELL        MOSUNNY   62  41  46 N3        29.89F
$$

KSZ061>065-074>080-084>089-272200-
SOUTHWEST KANSAS

CITY           SKY/WX    TMP DP  RH WIND       PRES   REMARKS
DODGE CITY     SUNNY     67  36  31 E9        29.90F
ELKHART          N/A     65  37  35 S7          N/A
GARDEN CITY    SUNNY     66  35  31 VRB3      29.88F
GREAT BEND     SUNNY     60  42  51 VRB5      29.91F
LIBERAL        SUNNY     66  36  32 SE12      29.90F
PRATT          SUNNY     60  40  47 N9        29.92F
$$

KSZ066>073-081>083-090>101-272200-
SOUTHEAST KANSAS

CITY           SKY/WX    TMP DP  RH WIND       PRES   REMARKS
CHANUTE        CLOUDY    55  47  74 N8        29.93S
COFFEYVILLE    CLOUDY    56  48  74 NW9       29.93S
HUTCHINSON     CLOUDY    54  46  74 N9        29.93F
MEDICINE LODGE   N/A     67  40  37 NE8       29.90F
NEWTON         CLOUDY    52  46  80 NE12      29.93F
PARSONS        CLOUDY    56  48  74 N10       29.93F
WICHITA INTL   CLOUDY    53  46  77 N8        29.94S
WICHITA JABRA  CLOUDY    53  46  77 N10       29.93F
WICHITA MCCONL CLOUDY    53  45  75 N12       29.93F
WINFIELD       CLOUDY    55  46  71 N10       29.95R
$$

KSZ007>012-019>026-033>040-048>060-102>105-272200-
NORTHEAST KANSAS

CITY           SKY/WX    TMP DP  RH WIND       PRES   REMARKS
CONCORDIA      CLOUDY    53  46  77 VRB3      29.95F
EMPORIA        CLOUDY    53  48  83 N7        29.94S
LAWRENCE       CLOUDY    56  48  74 N8        29.93R
MANHATTAN      CLOUDY    56  46  69 VRB5      29.95S
MARYSVILLE     CLOUDY    52  45  76 N6        29.96R
OLATHE IND     CLOUDY    51  47  86 N13       29.92S
OLATHE EXE     CLOUDY    51  48  89 N10       29.91S
SALINA         CLOUDY    56  46  69 N7        29.95F
TOPEKA BILLARD CLOUDY    55  48  77 NE7       29.94R
TOPEKA FORBES  CLOUDY    57  48  72 N7        29.94R
$$



USA.gov is the U.S. government's official web portal to all federal, state and local government web resources and services.